sat.trackr.live / text

‹ back to catalog

STARLINK-5241

NORAD 54204 · 2022-141AZ

PAYLOAD ACTIVE UNKNOWN

§ Identity

Operator
Country
US
Launch date
2022-10-28
Launch site
AFWTR
Launch vehicle
Mass (kg)
RCS (m²)

Purposes: comms

External: N2YO · Heavens-Above · Gunter

§ Orbital elements

Epoch: 2026-09-20T10:15:05.844672Z

Period
93.79 min
Inclination
53.1595°
Eccentricity
0.0001417
Mean motion
15.35407485 rev/d
Perigee alt
458.7 km
Apogee alt
460.7 km
Semi-major
6,837.8 km
B*
4.7764e-5
RAAN
188.2296°
Arg perigee
66.8850°
Mean anomaly
293.2302°
Rev number
21,555

§ Raw data

STARLINK-52411 54204U 22141AZ  26263.42715098  .00001286  00000+0  47764-4 0  99982 54204  53.1595 188.2296 0001417  66.8850 293.2302 15.35407485215558

JSON: /api/v1/satellites/54204 · /tle

For live sub-satellite position, see the globe view (requires WebGL).

§ Visibility from observer

Set your observer location to see the next 7 days of passes ≥ 10°. The values pass through the URL so the page stays shareable.

No JS? Fill the form by hand. The geolocation button needs JavaScript.